^^
Saratoga-Weather Station Historical Data
Daily Summary for November 3, 2020 Units:  Metric    English   Both
Daily Weekly Monthly Yearly Custom
  High: Low: Average:
Temperature: 12.5 °C 6.5 °C 10 °C
Dew Point: 10.1 °C 4.2 °C 7.6 °C
Humidity: 91% 70% 86%
Wind Speed: 14.3km/h 0km/h 3km/h
Wind Gust: 19.3km/h - -
Wind- - West
Pressure: 1027.4 hPa 1019.6 hPa -
Precipitation: 0.5 mm    
Historical Graphs
 
 
Tabular Data for November 3, 2020
Time Temperature Dew Point Pressure Wind Wind Speed Wind Gust Humidity Rainfall Rate (Hourly) solar
00:00 11.7 °C 10.1 °C 1019.6 hPa West 4.7 km/h 8 km/h 90% 0.0 mm 0 W/m2
00:05 11.6 °C 9.8 °C 1019.6 hPa WSW 4.7 km/h 9.7 km/h 89% 0.0 mm 0 W/m2
00:10 11.6 °C 9.7 °C 1019.6 hPa West 4.7 km/h 9.7 km/h 88% 0.0 mm 0 W/m2
00:15 11.5 °C 9.6 °C 1020.0 hPa West 4.7 km/h 9.7 km/h 88% 0.0 mm 0 W/m2
00:20 11.4 °C 9.5 °C 1020.0 hPa WNW 4.7 km/h 14.5 km/h 88% 0.0 mm 0 W/m2
00:25 11.4 °C 9.5 °C 1020.0 hPa WSW 6.4 km/h 8 km/h 88% 0.0 mm 0 W/m2
00:30 11.4 °C 9.5 °C 1020.0 hPa WNW 6.4 km/h 11.3 km/h 88% 0.0 mm 0 W/m2
00:35 11.3 °C 9.4 °C 1020.0 hPa West 6.4 km/h 8 km/h 88% 0.0 mm 0 W/m2
00:40 11.3 °C 9.4 °C 1020.0 hPa West 3.2 km/h 6.4 km/h 88% 0.0 mm 0 W/m2
00:45 11.3 °C 9.4 °C 1020.0 hPa SW 3.2 km/h 9.7 km/h 88% 0.0 mm 0 W/m2
00:50 11.3 °C 9.4 °C 1020.0 hPa WSW 3.2 km/h 9.7 km/h 88% 0.0 mm 0 W/m2
00:55 11.3 °C 9.4 °C 1020.3 hPa West 4.7 km/h 12.9 km/h 88% 0.0 mm 0 W/m2
01:00 11.3 °C 9.4 °C 1020.3 hPa WNW 4.7 km/h 9.7 km/h 88% 0.0 mm 0 W/m2
01:05 11.3 °C 9.4 °C 1020.7 hPa WNW 3.2 km/h 6.4 km/h 88% 0.0 mm 0 W/m2
01:10 11.3 °C 9.4 °C 1020.7 hPa West 3.2 km/h 8 km/h 88% 0.0 mm 0 W/m2
01:15 11.3 °C 9.2 °C 1020.7 hPa WNW 7.9 km/h 14.5 km/h 87% 0.0 mm 0 W/m2
01:20 11.3 °C 9.2 °C 1020.7 hPa NW 6.4 km/h 6.4 km/h 87% 0.0 mm 0 W/m2
01:25 11.3 °C 9.2 °C 1020.7 hPa West 3.2 km/h 14.5 km/h 87% 0.0 mm 0 W/m2
01:30 11.2 °C 9.1 °C 1020.7 hPa West 3.2 km/h 6.4 km/h 87% 0.0 mm 0 W/m2
01:35 11.2 °C 9.1 °C 1020.7 hPa West 3.2 km/h 12.9 km/h 87% 0.0 mm 0 W/m2
01:40 11.2 °C 9.1 °C 1020.7 hPa West 3.2 km/h 11.3 km/h 87% 0.0 mm 0 W/m2
01:45 11.2 °C 9.1 °C 1020.7 hPa WSW 4.7 km/h 12.9 km/h 87% 0.0 mm 0 W/m2
01:50 11.2 °C 9.1 °C 1020.7 hPa WSW 3.2 km/h 11.3 km/h 87% 0.0 mm 0 W/m2
01:55 11.2 °C 9.1 °C 1021.0 hPa WNW 4.7 km/h 4.8 km/h 87% 0.0 mm 0 W/m2
02:00 11.2 °C 9.1 °C 1021.0 hPa WNW 1.4 km/h 11.3 km/h 87% 0.0 mm 0 W/m2
02:05 11.1 °C 9 °C 1021.0 hPa WNW 1.4 km/h 3.2 km/h 87% 0.0 mm 0 W/m2
02:10 11.1 °C 9 °C 1021.3 hPa West 1.4 km/h 6.4 km/h 87% 0.0 mm 0 W/m2
02:15 11.1 °C 9.2 °C 1021.0 hPa Calm     88% 0.0 mm 0 W/m2
02:20 11.1 °C 9.2 °C 1021.0 hPa Calm   6.4 km/h 88% 0.0 mm 0 W/m2
02:25 11 °C 9.3 °C 1021.0 hPa Calm   3.2 km/h 89% 0.0 mm 0 W/m2
02:30 10.9 °C 9.3 °C 1021.3 hPa WSW 1.4 km/h 1.6 km/h 90% 0.0 mm 0 W/m2
02:35 10.8 °C 9.2 °C 1021.3 hPa Calm   1.6 km/h 90% 0.0 mm 0 W/m2
02:40 10.8 °C 9.2 °C 1021.7 hPa Calm   1.6 km/h 90% 0.0 mm 0 W/m2
02:45 10.7 °C 9.1 °C 1021.7 hPa Calm   3.2 km/h 90% 0.0 mm 0 W/m2
02:50 10.7 °C 9.3 °C 1021.7 hPa Calm   1.6 km/h 91% 0.0 mm 0 W/m2
02:55 10.7 °C 9.3 °C 1021.3 hPa Calm   1.6 km/h 91% 0.0 mm 0 W/m2
03:00 10.7 °C 9.3 °C 1021.7 hPa West 1.4 km/h 4.8 km/h 91% 0.0 mm 0 W/m2
03:05 10.7 °C 9.3 °C 1021.3 hPa Calm   4.8 km/h 91% 0.0 mm 0 W/m2
03:10 10.7 °C 9.3 °C 1022.0 hPa Calm   3.2 km/h 91% 0.0 mm 0 W/m2
03:15 10.7 °C 9.3 °C 1021.7 hPa WNW 1.4 km/h 4.8 km/h 91% 0.0 mm 0 W/m2
03:20 10.7 °C 9.3 °C 1022.0 hPa Calm   6.4 km/h 91% 0.0 mm 0 W/m2
03:26 10.7 °C 9.3 °C 1021.7 hPa WNW 1.4 km/h 3.2 km/h 91% 0.0 mm 0 W/m2
03:31 10.7 °C 9.1 °C 1021.7 hPa SW 4.7 km/h 6.4 km/h 90% 0.0 mm 0 W/m2
03:36 10.7 °C 9.1 °C 1021.7 hPa Calm   3.2 km/h 90% 0.0 mm 0 W/m2
03:41 10.7 °C 9.1 °C 1022.0 hPa WSW 1.4 km/h 4.8 km/h 90% 0.0 mm 0 W/m2
03:46 10.7 °C 9.1 °C 1022.0 hPa WNW 1.4 km/h 3.2 km/h 90% 0.0 mm 0 W/m2
03:51 10.7 °C 9.1 °C 1022.0 hPa WNW 3.2 km/h 4.8 km/h 90% 0.0 mm 0 W/m2
03:56 10.7 °C 9.1 °C 1021.3 hPa Calm   3.2 km/h 90% 0.0 mm 0 W/m2
04:01 10.7 °C 9.1 °C 1021.3 hPa WNW 1.4 km/h 4.8 km/h 90% 0.0 mm 0 W/m2
04:06 10.7 °C 9.1 °C 1021.7 hPa West 1.4 km/h 6.4 km/h 90% 0.0 mm 0 W/m2
04:11 10.7 °C 9 °C 1021.3 hPa SSW 3.2 km/h 3.2 km/h 89% 0.0 mm 0 W/m2
04:16 10.7 °C 9 °C 1022.4 hPa WNW 3.2 km/h 6.4 km/h 89% 0.0 mm 0 W/m2
04:21 10.7 °C 9 °C 1022.0 hPa WNW 3.2 km/h 4.8 km/h 89% 0.0 mm 0 W/m2
04:26 10.7 °C 9 °C 1021.7 hPa Calm     89% 0.0 mm 0 W/m2
04:31 10.7 °C 9 °C 1021.3 hPa Calm   4.8 km/h 89% 0.0 mm 0 W/m2
04:36 10.6 °C 9 °C 1022.0 hPa WSW 4.7 km/h 6.4 km/h 90% 0.0 mm 0 W/m2
04:42 10.6 °C 9 °C 1021.7 hPa Calm   1.6 km/h 90% 0.0 mm 0 W/m2
04:47 10.6 °C 9 °C 1021.7 hPa WSW 1.4 km/h 3.2 km/h 90% 0.0 mm 0 W/m2
04:52 10.5 °C 8.9 °C 1021.7 hPa Calm   4.8 km/h 90% 0.0 mm 0 W/m2
04:57 10.5 °C 8.9 °C 1022.0 hPa Calm   3.2 km/h 90% 0.0 mm 0 W/m2
05:02 10.4 °C 8.8 °C 1022.0 hPa WNW 3.2 km/h 4.8 km/h 90% 0.0 mm 0 W/m2
05:07 10.4 °C 8.8 °C 1021.7 hPa Calm   4.8 km/h 90% 0.0 mm 0 W/m2
05:12 10.4 °C 8.8 °C 1022.0 hPa West 3.2 km/h 4.8 km/h 90% 0.0 mm 0 W/m2
05:17 10.4 °C 8.8 °C 1022.0 hPa West 4.7 km/h 4.8 km/h 90% 0.0 mm 0 W/m2
05:22 10.4 °C 8.7 °C 1022.0 hPa WSW 3.2 km/h 6.4 km/h 89% 0.0 mm 0 W/m2
05:27 10.4 °C 8.7 °C 1022.0 hPa WSW 3.2 km/h 4.8 km/h 89% 0.0 mm 0 W/m2
05:32 10.3 °C 8.6 °C 1022.0 hPa WSW 1.4 km/h 4.8 km/h 89% 0.0 mm 0 W/m2
05:37 10.3 °C 8.6 °C 1022.4 hPa WSW 4.7 km/h 4.8 km/h 89% 0.0 mm 0 W/m2
05:42 10.2 °C 8.5 °C 1022.0 hPa Calm   4.8 km/h 89% 0.0 mm 0 W/m2
05:47 10.2 °C 8.5 °C 1022.0 hPa West 1.4 km/h 3.2 km/h 89% 0.0 mm 0 W/m2
05:52 10.2 °C 8.5 °C 1022.0 hPa WSW 3.2 km/h 6.4 km/h 89% 0.0 mm 0 W/m2
05:57 10.1 °C 8.4 °C 1022.0 hPa WSW 1.4 km/h 3.2 km/h 89% 0.0 mm 0 W/m2
06:02 10.1 °C 8.4 °C 1022.0 hPa West 4.7 km/h 9.7 km/h 89% 0.0 mm 0 W/m2
06:07 10.1 °C 8.4 °C 1022.0 hPa West 1.4 km/h 6.4 km/h 89% 0.0 mm 0 W/m2
06:12 10.1 °C 8.4 °C 1022.0 hPa West 6.4 km/h 6.4 km/h 89% 0.0 mm 0 W/m2
06:17 10 °C 8.3 °C 1022.0 hPa West 4.7 km/h 4.8 km/h 89% 0.0 mm 0 W/m2
06:22 9.9 °C 8.2 °C 1022.4 hPa West 3.2 km/h 6.4 km/h 89% 0.0 mm 0 W/m2
06:27 9.9 °C 8.2 °C 1022.0 hPa West 1.4 km/h 3.2 km/h 89% 0.0 mm 0 W/m2
06:32 9.8 °C 8.1 °C 1022.0 hPa Calm   6.4 km/h 89% 0.0 mm 0 W/m2
06:37 9.6 °C 7.9 °C 1022.0 hPa Calm   3.2 km/h 89% 0.0 mm 0 W/m2
06:42 9.5 °C 7.9 °C 1022.0 hPa West 1.4 km/h 6.4 km/h 90% 0.0 mm 0 W/m2
06:47 9.4 °C 7.8 °C 1022.4 hPa West 6.4 km/h 6.4 km/h 90% 0.0 mm 0 W/m2
06:53 9.4 °C 7.8 °C 1022.4 hPa WSW 1.4 km/h 9.7 km/h 90% 0.0 mm 0 W/m2
06:58 9.3 °C 7.7 °C 1022.4 hPa WSW 4.7 km/h 4.8 km/h 90% 0.0 mm 0 W/m2
07:03 9.2 °C 7.6 °C 1022.4 hPa WSW 4.7 km/h 9.7 km/h 90% 0.0 mm 0 W/m2
07:08 9.2 °C 7.6 °C 1022.4 hPa West 4.7 km/h 4.8 km/h 90% 0.0 mm 0 W/m2
07:13 9.2 °C 7.6 °C 1022.4 hPa West 3.2 km/h 8 km/h 90% 0.0 mm 0 W/m2
07:18 9.2 °C 7.6 °C 1022.4 hPa WSW 1.4 km/h 6.4 km/h 90% 0.0 mm 0 W/m2
07:23 9.1 °C 7.5 °C 1022.4 hPa WSW 3.2 km/h 8 km/h 90% 0.0 mm 0 W/m2
07:28 9.1 °C 7.5 °C 1022.7 hPa Calm   4.8 km/h 90% 0.0 mm 0 W/m2
07:33 9.1 °C 7.5 °C 1022.7 hPa Calm   8 km/h 90% 0.0 mm 5 W/m2
07:38 9.1 °C 7.5 °C 1022.7 hPa SW 3.2 km/h 6.4 km/h 90% 0.0 mm 5 W/m2
07:43 9.2 °C 7.6 °C 1022.7 hPa WSW 3.2 km/h 4.8 km/h 90% 0.0 mm 11 W/m2
07:48 9.2 °C 7.6 °C 1022.7 hPa West 3.2 km/h 4.8 km/h 90% 0.0 mm 11 W/m2
07:53 9.2 °C 7.6 °C 1022.7 hPa Calm   6.4 km/h 90% 0.0 mm 11 W/m2
07:58 9.2 °C 7.6 °C 1022.7 hPa Calm   6.4 km/h 90% 0.0 mm 11 W/m2
08:03 9.2 °C 7.6 °C 1022.7 hPa West 1.4 km/h 3.2 km/h 90% 0.0 mm 21 W/m2
08:08 9.1 °C 7.5 °C 1022.7 hPa Calm   3.2 km/h 90% 0.0 mm 23 W/m2
08:18 9.2 °C 7.6 °C 1022.7 hPa Calm   1.6 km/h 90% 0.0 mm 40 W/m2
08:23 9.2 °C 7.6 °C 1022.7 hPa WNW 3.2 km/h 4.8 km/h 90% 0.0 mm 39 W/m2
08:28 9.3 °C 7.7 °C 1022.7 hPa Calm   3.2 km/h 90% 0.0 mm 37 W/m2
08:33 9.3 °C 7.7 °C 1022.7 hPa Calm   3.2 km/h 90% 0.0 mm 51 W/m2
08:38 9.4 °C 7.8 °C 1022.7 hPa Calm   3.2 km/h 90% 0.0 mm 53 W/m2
08:43 9.4 °C 7.8 °C 1023.0 hPa Calm   3.2 km/h 90% 0.0 mm 49 W/m2
08:48 9.4 °C 8 °C 1023.0 hPa NW 1.4 km/h 3.2 km/h 91% 0.0 mm 60 W/m2
08:53 9.5 °C 8.1 °C 1023.0 hPa Calm   1.6 km/h 91% 0.0 mm 60 W/m2
08:58 9.6 °C 8.2 °C 1023.0 hPa Calm   1.6 km/h 91% 0.0 mm 46 W/m2
09:03 9.6 °C 8.2 °C 1023.0 hPa WNW 1.4 km/h 6.4 km/h 91% 0.0 mm 33 W/m2
09:08 9.6 °C 8.2 °C 1023.4 hPa Calm     91% 0.0 mm 44 W/m2
09:13 9.6 °C 8.2 °C 1023.4 hPa Calm   3.2 km/h 91% 0.0 mm 46 W/m2
09:18 9.6 °C 8.2 °C 1023.4 hPa SSE 1.4 km/h 3.2 km/h 91% 0.0 mm 54 W/m2
09:23 9.6 °C 8.2 °C 1023.4 hPa Calm     91% 0.0 mm 69 W/m2
09:28 9.6 °C 8.2 °C 1023.4 hPa Calm     91% 0.0 mm 83 W/m2
09:33 9.7 °C 8.3 °C 1023.4 hPa Calm     91% 0.0 mm 86 W/m2
09:38 9.7 °C 8.1 °C 1023.4 hPa Calm   3.2 km/h 90% 0.0 mm 83 W/m2
09:43 9.8 °C 8.2 °C 1023.4 hPa Calm   3.2 km/h 90% 0.0 mm 84 W/m2
09:48 9.8 °C 8.2 °C 1023.4 hPa NW 3.2 km/h 3.2 km/h 90% 0.0 mm 81 W/m2
09:53 9.9 °C 8.3 °C 1023.4 hPa Calm   1.6 km/h 90% 0.0 mm 86 W/m2
09:58 10 °C 8.4 °C 1023.4 hPa Calm   1.6 km/h 90% 0.0 mm 63 W/m2
10:03 10.1 °C 8.5 °C 1023.4 hPa NNW 1.4 km/h 3.2 km/h 90% 0.0 mm 79 W/m2
10:08 10.1 °C 8.4 °C 1023.4 hPa Calm   1.6 km/h 89% 0.0 mm 97 W/m2
10:13 10.2 °C 8.5 °C 1023.4 hPa NW 3.2 km/h 4.8 km/h 89% 0.0 mm 102 W/m2
10:18 10.2 °C 8.3 °C 1023.4 hPa Calm   1.6 km/h 88% 0.0 mm 107 W/m2
10:23 10.2 °C 8.3 °C 1023.4 hPa NW 3.2 km/h 3.2 km/h 88% 0.0 mm 148 W/m2
10:28 10.3 °C 8.4 °C 1023.4 hPa North 3.2 km/h 3.2 km/h 88% 0.0 mm 167 W/m2
10:33 10.4 °C 8.5 °C 1023.4 hPa North 1.4 km/h 3.2 km/h 88% 0.0 mm 192 W/m2
10:38 10.6 °C 8.5 °C 1023.4 hPa NW 1.4 km/h 4.8 km/h 87% 0.0 mm 192 W/m2
10:43 10.7 °C 8.6 °C 1023.7 hPa WNW 3.2 km/h 6.4 km/h 87% 0.0 mm 176 W/m2
10:48 10.7 °C 8.5 °C 1023.4 hPa Calm   3.2 km/h 86% 0.0 mm 188 W/m2
10:53 10.8 °C 8.4 °C 1023.4 hPa WNW 1.4 km/h 4.8 km/h 85% 0.0 mm 199 W/m2
10:58 10.9 °C 8.5 °C 1023.4 hPa Calm   1.6 km/h 85% 0.0 mm 169 W/m2
11:03 10.9 °C 8.3 °C 1023.4 hPa North 1.4 km/h 4.8 km/h 84% 0.0 mm 162 W/m2
11:08 11.1 °C 8.3 °C 1023.4 hPa NNW 1.4 km/h 4.8 km/h 83% 0.0 mm 171 W/m2
11:13 11.1 °C 8.5 °C 1023.7 hPa Calm   3.2 km/h 84% 0.0 mm 163 W/m2
11:19 11.2 °C 8.4 °C 1023.4 hPa Calm   3.2 km/h 83% 0.0 mm 183 W/m2
11:24 11.3 °C 8.5 °C 1023.4 hPa WNW 3.2 km/h 9.7 km/h 83% 0.0 mm 181 W/m2
11:29 11.3 °C 8.5 °C 1023.4 hPa NNW 1.4 km/h 4.8 km/h 83% 0.0 mm 185 W/m2
11:34 11.4 °C 8.6 °C 1023.4 hPa NW 7.9 km/h 11.3 km/h 83% 0.0 mm 171 W/m2
11:39 11.4 °C 8.6 °C 1023.4 hPa West 4.7 km/h 12.9 km/h 83% 0.0 mm 162 W/m2
11:44 11.4 °C 8.6 °C 1023.4 hPa WSW 3.2 km/h 8 km/h 83% 0.0 mm 151 W/m2
11:49 11.5 °C 8.7 °C 1023.4 hPa NNW 4.7 km/h 8 km/h 83% 0.0 mm 141 W/m2
11:54 11.5 °C 8.7 °C 1023.4 hPa SSE 3.2 km/h 3.2 km/h 83% 0.0 mm 149 W/m2
11:59 11.6 °C 8.8 °C 1023.4 hPa Calm   3.2 km/h 83% 0.0 mm 141 W/m2
12:04 11.6 °C 8.6 °C 1023.4 hPa West 1.4 km/h 4.8 km/h 82% 0.0 mm 132 W/m2
12:09 11.6 °C 8.6 °C 1023.4 hPa NW 1.4 km/h 3.2 km/h 82% 0.0 mm 130 W/m2
12:14 11.6 °C 8.5 °C 1023.4 hPa WNW 3.2 km/h 6.4 km/h 81% 0.0 mm 128 W/m2
12:19 11.6 °C 8.5 °C 1023.4 hPa Calm   4.8 km/h 81% 0.0 mm 144 W/m2
12:24 11.6 °C 8.5 °C 1023.4 hPa Calm   3.2 km/h 81% 0.0 mm 151 W/m2
12:29 11.6 °C 8.5 °C 1023.4 hPa WNW 1.4 km/h 11.3 km/h 81% 0.0 mm 160 W/m2
12:34 11.7 °C 8.5 °C 1023.4 hPa NNW 7.9 km/h 8 km/h 81% 0.0 mm 160 W/m2
12:39 11.7 °C 8.5 °C 1023.4 hPa WNW 3.2 km/h 8 km/h 81% 0.0 mm 167 W/m2
12:44 11.7 °C 8.5 °C 1023.4 hPa NW 6.4 km/h 8 km/h 81% 0.0 mm 171 W/m2
12:49 11.8 °C 8.6 °C 1023.4 hPa WNW 4.7 km/h 8 km/h 81% 0.0 mm 188 W/m2
12:54 11.8 °C 8.6 °C 1023.4 hPa NW 4.7 km/h 6.4 km/h 81% 0.0 mm 193 W/m2
12:59 11.8 °C 8.5 °C 1023.4 hPa WNW 4.7 km/h 8 km/h 80% 0.0 mm 165 W/m2
13:04 11.9 °C 8.6 °C 1023.4 hPa WNW 4.7 km/h 6.4 km/h 80% 0.0 mm 144 W/m2
13:09 11.9 °C 8.6 °C 1023.4 hPa WNW 6.4 km/h 8 km/h 80% 0.0 mm 139 W/m2
13:14 11.9 °C 8.6 °C 1023.4 hPa West 4.7 km/h 9.7 km/h 80% 0.0 mm 114 W/m2
13:19 11.9 °C 8.6 °C 1023.4 hPa NW 3.2 km/h 4.8 km/h 80% 0.0 mm 167 W/m2
13:24 12 °C 8.7 °C 1023.4 hPa ENE 3.2 km/h 4.8 km/h 80% 0.0 mm 148 W/m2
13:29 12 °C 8.5 °C 1023.4 hPa Calm   3.2 km/h 79% 0.0 mm 174 W/m2
13:34 12 °C 8.5 °C 1023.0 hPa WNW 6.4 km/h 9.7 km/h 79% 0.0 mm 171 W/m2
13:39 12.1 °C 8.4 °C 1023.4 hPa WSW 7.9 km/h 17.7 km/h 78% 0.0 mm 160 W/m2
13:44 12.1 °C 8.4 °C 1023.0 hPa West 3.2 km/h 12.9 km/h 78% 0.0 mm 113 W/m2
13:49 12.1 °C 8.4 °C 1023.0 hPa NNW 3.2 km/h 8 km/h 78% 0.0 mm 156 W/m2
13:54 12.2 °C 8.5 °C 1023.0 hPa West 6.4 km/h 6.4 km/h 78% 0.0 mm 236 W/m2
13:59 12.2 °C 8.3 °C 1023.0 hPa WSW 4.7 km/h 14.5 km/h 77% 0.0 mm 144 W/m2
14:04 12.2 °C 8.1 °C 1023.0 hPa NNE 3.2 km/h 11.3 km/h 76% 0.0 mm 151 W/m2
14:09 12.3 °C 8 °C 1023.0 hPa NNE 4.7 km/h 14.5 km/h 75% 0.0 mm 98 W/m2
14:14 12.3 °C 7.8 °C 1023.0 hPa West 1.4 km/h 12.9 km/h 74% 0.0 mm 81 W/m2
14:19 12.2 °C 7.9 °C 1023.0 hPa NW 3.2 km/h 14.5 km/h 75% 0.0 mm 72 W/m2
14:24 12.3 °C 7.6 °C 1023.0 hPa North 3.2 km/h 6.4 km/h 73% 0.0 mm 58 W/m2
14:30 12.3 °C 7.6 °C 1023.0 hPa SW 1.4 km/h 6.4 km/h 73% 0.0 mm 65 W/m2
14:35 12.3 °C 7.4 °C 1023.0 hPa WSW 1.4 km/h 4.8 km/h 72% 0.0 mm 76 W/m2
14:40 12.3 °C 7.4 °C 1023.0 hPa WNW 4.7 km/h 8 km/h 72% 0.0 mm 81 W/m2
14:45 12.3 °C 7.4 °C 1023.0 hPa WNW 4.7 km/h 4.8 km/h 72% 0.0 mm 97 W/m2
14:50 12.4 °C 7.3 °C 1023.0 hPa West 13 km/h 12.9 km/h 71% 0.0 mm 93 W/m2
14:55 12.4 °C 7.3 °C 1023.0 hPa East 1.4 km/h 4.8 km/h 71% 0.0 mm 113 W/m2
15:00 12.4 °C 7.3 °C 1023.0 hPa NW 7.9 km/h 8 km/h 71% 0.0 mm 118 W/m2
15:05 12.4 °C 7.3 °C 1022.7 hPa West 4.7 km/h 6.4 km/h 71% 0.0 mm 116 W/m2
15:10 12.4 °C 7.1 °C 1022.7 hPa West 1.4 km/h 3.2 km/h 70% 0.0 mm 100 W/m2
15:15 12.4 °C 7.3 °C 1022.7 hPa North 4.7 km/h 9.7 km/h 71% 0.0 mm 121 W/m2
15:20 12.5 °C 7.4 °C 1022.7 hPa WSW 3.2 km/h 9.7 km/h 71% 0.0 mm 100 W/m2
15:25 12.4 °C 7.3 °C 1022.7 hPa East 1.4 km/h 3.2 km/h 71% 0.0 mm 65 W/m2
15:30 12.5 °C 7.4 °C 1022.7 hPa WNW 1.4 km/h 6.4 km/h 71% 0.0 mm 90 W/m2
15:35 12.5 °C 7.2 °C 1022.7 hPa Calm   3.2 km/h 70% 0.0 mm 53 W/m2
15:40 12.5 °C 7.4 °C 1022.7 hPa Calm   6.4 km/h 71% 0.0 mm 49 W/m2
15:45 12.4 °C 7.1 °C 1022.7 hPa NW 1.4 km/h 4.8 km/h 70% 0.0 mm 28 W/m2
15:50 12.4 °C 7.1 °C 1022.7 hPa West 1.4 km/h 4.8 km/h 70% 0.0 mm 19 W/m2
15:55 12.4 °C 7.3 °C 1022.7 hPa NW 4.7 km/h 8 km/h 71% 0.0 mm 18 W/m2
16:00 12.3 °C 7.6 °C 1022.7 hPa NW 1.4 km/h 4.8 km/h 73% 0.0 mm 21 W/m2
16:05 12.3 °C 7.6 °C 1022.7 hPa South 3.2 km/h 3.2 km/h 73% 0.0 mm 23 W/m2
16:10 12.2 °C 7.3 °C 1022.7 hPa North 6.4 km/h 8 km/h 72% 0.0 mm 21 W/m2
16:15 12.2 °C 7.3 °C 1022.7 hPa Calm   11.3 km/h 72% 0.0 mm 19 W/m2
16:20 12.2 °C 7.5 °C 1023.0 hPa ENE 1.4 km/h 14.5 km/h 73% 0.0 mm 21 W/m2
16:25 12 °C 7.7 °C 1023.4 hPa SSW 4.7 km/h 11.3 km/h 75% 0.0 mm 11 W/m2
16:30 11.6 °C 8.1 °C 1023.0 hPa WNW 4.7 km/h 12.9 km/h 79% 0.2 mm 18 W/m2
16:35 11.2 °C 8.2 °C 1023.4 hPa NW 3.2 km/h 12.9 km/h 82% 0.2 mm 14 W/m2
16:40 10.8 °C 8 °C 1023.4 hPa NW 4.7 km/h 12.9 km/h 83% 0.2 mm 12 W/m2
16:45 10.7 °C 8.1 °C 1023.4 hPa WNW 7.9 km/h 12.9 km/h 84% 0.5 mm 23 W/m2
16:50 10.6 °C 8.4 °C 1023.4 hPa NW 1.4 km/h 4.8 km/h 86% 0.5 mm 11 W/m2
16:55 10.4 °C 8.2 °C 1023.4 hPa NW 3.2 km/h 6.4 km/h 86% 0.5 mm 5 W/m2
17:00 10.3 °C 8.2 °C 1023.4 hPa WSW 4.7 km/h 9.7 km/h 87% 0.5 mm 9 W/m2
17:05 10.3 °C 8.4 °C 1023.7 hPa West 6.4 km/h 8 km/h 88% 0.5 mm 18 W/m2
17:10 10.3 °C 8.4 °C 1023.7 hPa West 3.2 km/h 9.7 km/h 88% 0.5 mm 5 W/m2
17:15 10.2 °C 8.3 °C 1023.7 hPa WSW 13 km/h 16.1 km/h 88% 0.5 mm 0 W/m2
17:20 10 °C 7.8 °C 1023.7 hPa NW 14.3 km/h 16.1 km/h 86% 0.5 mm 0 W/m2
17:25 9.9 °C 7.5 °C 1023.7 hPa West 11.1 km/h 14.5 km/h 85% 0.5 mm 0 W/m2
17:30 9.8 °C 7.2 °C 1023.7 hPa SW 3.2 km/h 17.7 km/h 84% 0.2 mm 0 W/m2
17:35 9.7 °C 7.1 °C 1024.0 hPa WSW 6.4 km/h 14.5 km/h 84% 0.2 mm 0 W/m2
17:40 9.7 °C 7.1 °C 1024.0 hPa NW 6.4 km/h 12.9 km/h 84% 0.2 mm 0 W/m2
17:45 9.6 °C 7 °C 1024.0 hPa WSW 11.1 km/h 14.5 km/h 84% 0.0 mm 0 W/m2
17:50 9.4 °C 6.8 °C 1024.0 hPa WSW 3.2 km/h 9.7 km/h 84% 0.0 mm 0 W/m2
17:55 9.3 °C 6.7 °C 1024.4 hPa West 4.7 km/h 14.5 km/h 84% 0.0 mm 0 W/m2
18:00 9.2 °C 6.6 °C 1024.4 hPa WNW 1.4 km/h 12.9 km/h 84% 0.0 mm 0 W/m2
18:05 9.2 °C 6.6 °C 1024.4 hPa SW 4.7 km/h 12.9 km/h 84% 0.0 mm 0 W/m2
18:10 9.2 °C 6.5 °C 1024.4 hPa West 6.4 km/h 6.4 km/h 83% 0.0 mm 0 W/m2
18:15 9.1 °C 6.4 °C 1024.4 hPa West 4.7 km/h 12.9 km/h 83% 0.0 mm 0 W/m2
18:20 8.9 °C 6.3 °C 1024.7 hPa Calm   3.2 km/h 84% 0.0 mm 0 W/m2
18:25 8.7 °C 6.3 °C 1024.7 hPa Calm   6.4 km/h 85% 0.0 mm 0 W/m2
18:30 8.4 °C 6.2 °C 1024.7 hPa Calm   1.6 km/h 86% 0.0 mm 0 W/m2
18:35 8.3 °C 6.1 °C 1025.1 hPa Calm   3.2 km/h 86% 0.0 mm 0 W/m2
18:40 8.1 °C 6.1 °C 1025.1 hPa WSW 1.4 km/h 1.6 km/h 87% 0.0 mm 0 W/m2
18:45 7.9 °C 6 °C 1025.1 hPa WSW 1.4 km/h 3.2 km/h 88% 0.0 mm 0 W/m2
18:50 7.8 °C 5.9 °C 1025.1 hPa Calm   4.8 km/h 88% 0.0 mm 0 W/m2
18:55 7.8 °C 5.9 °C 1025.4 hPa WNW 1.4 km/h 4.8 km/h 88% 0.0 mm 0 W/m2
19:00 7.8 °C 5.8 °C 1025.1 hPa West 1.4 km/h 8 km/h 87% 0.0 mm 0 W/m2
19:05 7.8 °C 5.8 °C 1025.1 hPa Calm   3.2 km/h 87% 0.0 mm 0 W/m2
19:10 7.8 °C 5.8 °C 1025.1 hPa WSW 1.4 km/h 6.4 km/h 87% 0.0 mm 0 W/m2
19:15 7.9 °C 5.9 °C 1025.4 hPa WNW 3.2 km/h 9.7 km/h 87% 0.0 mm 0 W/m2
19:20 8 °C 6 °C 1025.4 hPa WSW 1.4 km/h 11.3 km/h 87% 0.0 mm 0 W/m2
19:25 8.1 °C 5.9 °C 1025.4 hPa SW 1.4 km/h 11.3 km/h 86% 0.0 mm 0 W/m2
19:30 8.1 °C 5.9 °C 1025.4 hPa WNW 1.4 km/h 8 km/h 86% 0.0 mm 0 W/m2
19:35 8.2 °C 6 °C 1025.4 hPa Calm   11.3 km/h 86% 0.0 mm 0 W/m2
19:40 8.2 °C 6 °C 1025.4 hPa NW 1.4 km/h 4.8 km/h 86% 0.0 mm 0 W/m2
19:45 8.1 °C 5.9 °C 1025.7 hPa NW 1.4 km/h 6.4 km/h 86% 0.0 mm 0 W/m2
19:50 8.1 °C 5.9 °C 1025.7 hPa Calm   1.6 km/h 86% 0.0 mm 0 W/m2
19:55 8 °C 5.8 °C 1025.4 hPa WNW 1.4 km/h 3.2 km/h 86% 0.0 mm 0 W/m2
20:00 7.9 °C 5.7 °C 1025.7 hPa NW 3.2 km/h 3.2 km/h 86% 0.0 mm 0 W/m2
20:05 7.9 °C 5.9 °C 1025.7 hPa WNW 4.7 km/h 4.8 km/h 87% 0.0 mm 0 W/m2
20:10 7.9 °C 5.9 °C 1025.7 hPa WNW 4.7 km/h 6.4 km/h 87% 0.0 mm 0 W/m2
20:15 7.8 °C 5.8 °C 1025.7 hPa WNW 1.4 km/h 8 km/h 87% 0.0 mm 0 W/m2
20:20 7.8 °C 5.8 °C 1025.7 hPa SW 3.2 km/h 4.8 km/h 87% 0.0 mm 0 W/m2
20:25 7.8 °C 5.8 °C 1025.7 hPa ESE 1.4 km/h 8 km/h 87% 0.0 mm 0 W/m2
20:30 7.7 °C 5.7 °C 1026.1 hPa Calm   4.8 km/h 87% 0.0 mm 0 W/m2
20:35 7.7 °C 5.8 °C 1026.1 hPa East 3.2 km/h 8 km/h 88% 0.0 mm 0 W/m2
20:40 7.6 °C 5.6 °C 1026.1 hPa SW 4.7 km/h 6.4 km/h 87% 0.0 mm 0 W/m2
20:45 7.6 °C 5.6 °C 1026.1 hPa Calm   8 km/h 87% 0.0 mm 0 W/m2
20:50 7.6 °C 5.6 °C 1026.1 hPa WSW 1.4 km/h 4.8 km/h 87% 0.0 mm 0 W/m2
20:55 7.5 °C 5.6 °C 1026.4 hPa WSW 6.4 km/h 6.4 km/h 88% 0.0 mm 0 W/m2
21:00 7.4 °C 5.5 °C 1026.4 hPa Calm   1.6 km/h 88% 0.0 mm 0 W/m2
21:05 7.4 °C 5.5 °C 1026.4 hPa WSW 1.4 km/h 6.4 km/h 88% 0.0 mm 0 W/m2
21:10 7.4 °C 5.5 °C 1026.4 hPa WSW 3.2 km/h 3.2 km/h 88% 0.0 mm 0 W/m2
21:15 7.4 °C 5.5 °C 1026.4 hPa NW 1.4 km/h 4.8 km/h 88% 0.0 mm 0 W/m2
21:20 7.4 °C 5.5 °C 1026.4 hPa Calm   4.8 km/h 88% 0.0 mm 0 W/m2
21:25 7.4 °C 5.5 °C 1026.4 hPa ESE 4.7 km/h 11.3 km/h 88% 0.0 mm 0 W/m2
21:30 7.3 °C 5.4 °C 1026.4 hPa SW 3.2 km/h 4.8 km/h 88% 0.0 mm 0 W/m2
21:35 7.3 °C 5.4 °C 1026.8 hPa WSW 9.7 km/h 11.3 km/h 88% 0.0 mm 0 W/m2
21:40 7.2 °C 5.3 °C 1026.8 hPa West 4.7 km/h 4.8 km/h 88% 0.0 mm 0 W/m2
21:45 7.2 °C 5.3 °C 1026.8 hPa West 4.7 km/h 11.3 km/h 88% 0.0 mm 0 W/m2
21:50 7.1 °C 5.2 °C 1026.8 hPa WNW 4.7 km/h 4.8 km/h 88% 0.0 mm 0 W/m2
21:55 7.1 °C 5.2 °C 1026.8 hPa West 1.4 km/h 4.8 km/h 88% 0.0 mm 0 W/m2
22:00 7 °C 5.1 °C 1026.8 hPa WNW 1.4 km/h 4.8 km/h 88% 0.0 mm 0 W/m2
22:05 6.9 °C 5.1 °C 1026.8 hPa WNW 1.4 km/h 8 km/h 88% 0.0 mm 0 W/m2
22:10 6.9 °C 5.1 °C 1026.8 hPa WSW 6.4 km/h 11.3 km/h 88% 0.0 mm 0 W/m2
22:16 6.9 °C 4.9 °C 1026.8 hPa WNW 4.7 km/h 11.3 km/h 87% 0.0 mm 0 W/m2
22:21 6.9 °C 4.9 °C 1026.8 hPa West 9.7 km/h 9.7 km/h 87% 0.0 mm 0 W/m2
22:26 6.8 °C 4.8 °C 1026.8 hPa West 4.7 km/h 11.3 km/h 87% 0.0 mm 0 W/m2
22:31 6.8 °C 4.8 °C 1026.8 hPa West 6.4 km/h 6.4 km/h 87% 0.0 mm 0 W/m2
22:36 6.7 °C 4.7 °C 1026.8 hPa WSW 7.9 km/h 12.9 km/h 87% 0.0 mm 0 W/m2
22:41 6.7 °C 4.7 °C 1026.8 hPa SW 4.7 km/h 12.9 km/h 87% 0.0 mm 0 W/m2
22:46 6.7 °C 4.7 °C 1026.8 hPa WNW 6.4 km/h 6.4 km/h 87% 0.0 mm 0 W/m2
22:51 6.7 °C 4.7 °C 1026.8 hPa WSW 4.7 km/h 12.9 km/h 87% 0.0 mm 0 W/m2
22:56 6.7 °C 4.7 °C 1026.8 hPa West 9.7 km/h 14.5 km/h 87% 0.0 mm 0 W/m2
23:01 6.7 °C 4.5 °C 1026.8 hPa West 9.7 km/h 12.9 km/h 86% 0.0 mm 0 W/m2
23:06 6.7 °C 4.5 °C 1026.8 hPa West 6.4 km/h 14.5 km/h 86% 0.0 mm 0 W/m2
23:11 6.7 °C 4.5 °C 1026.8 hPa WSW 11.1 km/h 14.5 km/h 86% 0.0 mm 0 W/m2
23:16 6.7 °C 4.5 °C 1027.1 hPa West 11.1 km/h 19.3 km/h 86% 0.0 mm 0 W/m2
23:21 6.7 °C 4.5 °C 1026.8 hPa West 4.7 km/h 14.5 km/h 86% 0.0 mm 0 W/m2
23:26 6.7 °C 4.5 °C 1027.1 hPa NW 4.7 km/h 14.5 km/h 86% 0.0 mm 0 W/m2
23:31 6.6 °C 4.4 °C 1027.1 hPa West 13 km/h 19.3 km/h 86% 0.0 mm 0 W/m2
23:36 6.6 °C 4.3 °C 1027.1 hPa WSW 11.1 km/h 16.1 km/h 85% 0.0 mm 0 W/m2
23:41 6.6 °C 4.3 °C 1027.1 hPa WNW 4.7 km/h 19.3 km/h 85% 0.0 mm 0 W/m2
23:46 6.6 °C 4.3 °C 1027.1 hPa West 4.7 km/h 14.5 km/h 85% 0.0 mm 0 W/m2
23:51 6.6 °C 4.3 °C 1027.4 hPa WSW 6.4 km/h 11.3 km/h 85% 0.0 mm 0 W/m2
23:56 6.5 °C 4.2 °C 1027.4 hPa West 3.2 km/h 14.5 km/h 85% 0.0 mm 0 W/m2
Juneau County Weather
Compliments of Weather Underground - 2 mb